Year,Month,Day,Hour,Minute,Value (Times are PST for temperature in C)
2007,07,10,00,00,17.40
2007,07,10,00,01,17.40
2007,07,10,00,02,17.40
2007,07,10,00,03,17.30
2007,07,10,00,04,17.30
2007,07,10,00,05,17.20
2007,07,10,00,06,17.20
2007,07,10,00,07,17.20
2007,07,10,00,08,17.20
2007,07,10,00,09,17.20
2007,07,10,00,10,17.20
2007,07,10,00,11,17.20
2007,07,10,00,12,17.20
2007,07,10,00,13,17.10
2007,07,10,00,14,17.10
2007,07,10,00,15,17.10
2007,07,10,00,16,17.10
2007,07,10,00,17,17.10
2007,07,10,00,18,17.10
2007,07,10,00,19,17.10
2007,07,10,00,20,17.10
2007,07,10,00,21,17.10
2007,07,10,00,22,17.10
2007,07,10,00,23,17.10
2007,07,10,00,24,17.10
2007,07,10,00,25,17.00
2007,07,10,00,26,17.00
2007,07,10,00,27,16.90
2007,07,10,00,28,16.80
2007,07,10,00,29,16.80
2007,07,10,00,30,16.70
2007,07,10,00,31,16.70
2007,07,10,00,32,16.70
2007,07,10,00,33,16.70
2007,07,10,00,34,16.70
2007,07,10,00,35,16.70
2007,07,10,00,36,16.70
2007,07,10,00,37,16.70
2007,07,10,00,38,16.70
2007,07,10,00,39,16.70
2007,07,10,00,40,16.70
2007,07,10,00,41,16.60
2007,07,10,00,42,16.60
2007,07,10,00,43,16.60
2007,07,10,00,44,16.60
2007,07,10,00,45,16.60
2007,07,10,00,46,16.60
2007,07,10,00,47,16.40
2007,07,10,00,48,16.40
2007,07,10,00,49,16.40
2007,07,10,00,50,16.40
2007,07,10,00,51,16.40
2007,07,10,00,52,16.40
2007,07,10,00,53,16.40
2007,07,10,00,54,16.40
2007,07,10,00,55,16.40
2007,07,10,00,56,16.30
2007,07,10,00,57,16.30
2007,07,10,00,58,16.30
2007,07,10,00,59,16.30
2007,07,10,01,00,16.30
2007,07,10,01,01,16.30
2007,07,10,01,02,16.30
2007,07,10,01,03,16.30
2007,07,10,01,04,16.30
2007,07,10,01,05,16.30
2007,07,10,01,06,16.30
2007,07,10,01,07,16.30
2007,07,10,01,08,16.20
2007,07,10,01,09,16.20
2007,07,10,01,10,16.20
2007,07,10,01,11,16.20
2007,07,10,01,12,16.10
2007,07,10,01,13,16.10
2007,07,10,01,14,16.10
2007,07,10,01,15,16.10
2007,07,10,01,16,16.10
2007,07,10,01,17,16.10
2007,07,10,01,18,16.10
2007,07,10,01,19,16.00
2007,07,10,01,20,15.90
2007,07,10,01,21,15.90
2007,07,10,01,22,15.90
2007,07,10,01,23,15.90
2007,07,10,01,24,15.90
2007,07,10,01,25,15.90
2007,07,10,01,26,15.90
2007,07,10,01,27,15.80
2007,07,10,01,28,15.80
2007,07,10,01,29,15.80
2007,07,10,01,30,15.80
2007,07,10,01,31,15.80
2007,07,10,01,32,15.80
2007,07,10,01,33,15.80
2007,07,10,01,34,15.80
2007,07,10,01,35,15.80
2007,07,10,01,36,15.80
2007,07,10,01,37,15.80
2007,07,10,01,38,15.80
2007,07,10,01,39,15.70
2007,07,10,01,40,15.70
2007,07,10,01,41,15.60
2007,07,10,01,42,15.60
2007,07,10,01,43,15.60
2007,07,10,01,44,15.60
2007,07,10,01,45,15.50
2007,07,10,01,46,15.50
2007,07,10,01,47,15.50
2007,07,10,01,48,15.50
2007,07,10,01,49,15.50
2007,07,10,01,50,15.50
2007,07,10,01,51,15.40
2007,07,10,01,52,15.40
2007,07,10,01,53,15.40
2007,07,10,01,54,15.40
2007,07,10,01,55,15.40
2007,07,10,01,56,15.40
2007,07,10,01,57,15.40
2007,07,10,01,58,15.30
2007,07,10,01,59,15.30
2007,07,10,02,00,15.30
2007,07,10,02,01,15.20
2007,07,10,02,02,15.20
2007,07,10,02,03,15.20
2007,07,10,02,04,15.10
2007,07,10,02,05,15.10
2007,07,10,02,06,15.10
2007,07,10,02,07,15.10
2007,07,10,02,08,15.00
2007,07,10,02,09,15.00
2007,07,10,02,10,15.00
2007,07,10,02,11,15.00
2007,07,10,02,12,15.00
2007,07,10,02,13,15.00
2007,07,10,02,14,15.00
2007,07,10,02,15,15.00
2007,07,10,02,16,15.00
2007,07,10,02,17,15.00
2007,07,10,02,18,15.10
2007,07,10,02,19,15.10
2007,07,10,02,20,15.10
2007,07,10,02,21,15.00
2007,07,10,02,22,15.00
2007,07,10,02,23,15.00
2007,07,10,02,24,15.00
2007,07,10,02,25,15.00
2007,07,10,02,26,15.00
2007,07,10,02,27,15.00
2007,07,10,02,28,15.00
2007,07,10,02,29,15.00
2007,07,10,02,30,15.00
2007,07,10,02,31,15.00
2007,07,10,02,32,15.00
2007,07,10,02,33,15.00
2007,07,10,02,34,15.00
2007,07,10,02,35,14.90
2007,07,10,02,36,14.90
2007,07,10,02,37,14.90
2007,07,10,02,38,14.90
2007,07,10,02,39,14.90
2007,07,10,02,40,14.90
2007,07,10,02,41,14.90
2007,07,10,02,42,14.90
2007,07,10,02,43,14.90
2007,07,10,02,44,14.90
2007,07,10,02,45,14.90
2007,07,10,02,46,14.80
2007,07,10,02,47,14.80
2007,07,10,02,48,14.80
2007,07,10,02,49,14.80
2007,07,10,02,50,14.80
2007,07,10,02,51,14.70
2007,07,10,02,52,14.70
2007,07,10,02,53,14.70
2007,07,10,02,54,14.70
2007,07,10,02,55,14.70
2007,07,10,02,56,14.60
2007,07,10,02,57,14.60
2007,07,10,02,58,14.60
2007,07,10,02,59,14.50
2007,07,10,03,00,14.50
2007,07,10,03,01,14.50
2007,07,10,03,02,14.50
2007,07,10,03,03,14.50
2007,07,10,03,04,14.50
2007,07,10,03,05,14.60
2007,07,10,03,06,14.60
2007,07,10,03,07,14.50
2007,07,10,03,08,14.50
2007,07,10,03,09,14.40
2007,07,10,03,10,14.40
2007,07,10,03,11,14.30
2007,07,10,03,12,14.30
2007,07,10,03,13,14.30
2007,07,10,03,14,14.30
2007,07,10,03,15,14.30
2007,07,10,03,16,14.20
2007,07,10,03,17,14.20
2007,07,10,03,18,14.20
2007,07,10,03,19,14.30
2007,07,10,03,20,14.30
2007,07,10,03,21,14.30
2007,07,10,03,22,14.20
2007,07,10,03,23,14.20
2007,07,10,03,24,14.20
2007,07,10,03,25,14.20
2007,07,10,03,26,14.20
2007,07,10,03,27,14.20
2007,07,10,03,28,14.20
2007,07,10,03,29,14.20
2007,07,10,03,30,14.20
2007,07,10,03,31,14.20
2007,07,10,03,32,14.20
2007,07,10,03,33,14.20
2007,07,10,03,34,14.20
2007,07,10,03,35,14.20
2007,07,10,03,36,14.20
2007,07,10,03,37,14.20
2007,07,10,03,38,14.20
2007,07,10,03,39,14.20
2007,07,10,03,40,14.20
2007,07,10,03,41,14.20
2007,07,10,03,42,14.20
2007,07,10,03,43,14.30
2007,07,10,03,44,14.20
2007,07,10,03,45,14.20
2007,07,10,03,46,14.30
2007,07,10,03,47,14.30
2007,07,10,03,48,14.30
2007,07,10,03,49,14.30
2007,07,10,03,50,14.30
2007,07,10,03,51,14.30
2007,07,10,03,52,14.30
2007,07,10,03,53,14.20
2007,07,10,03,54,14.20
2007,07,10,03,55,14.20
2007,07,10,03,56,14.20
2007,07,10,03,57,14.20
2007,07,10,03,58,14.20
2007,07,10,03,59,14.20
2007,07,10,04,00,14.20
2007,07,10,04,01,14.10
2007,07,10,04,02,14.10
2007,07,10,04,03,14.00
2007,07,10,04,04,14.00
2007,07,10,04,05,14.00
2007,07,10,04,06,13.90
2007,07,10,04,07,13.90
2007,07,10,04,08,13.90
2007,07,10,04,09,13.80
2007,07,10,04,10,13.80
2007,07,10,04,11,13.80
2007,07,10,04,12,13.80
2007,07,10,04,13,13.80
2007,07,10,04,14,13.80
2007,07,10,04,15,13.70
2007,07,10,04,16,13.70
2007,07,10,04,17,13.70
2007,07,10,04,18,13.70
2007,07,10,04,19,13.70
2007,07,10,04,20,13.70
2007,07,10,04,21,13.70
2007,07,10,04,22,13.70
2007,07,10,04,23,13.70
2007,07,10,04,24,13.60
2007,07,10,04,25,13.70
2007,07,10,04,26,13.60
2007,07,10,04,27,13.60
2007,07,10,04,28,13.60
2007,07,10,04,29,13.60
2007,07,10,04,30,13.60
2007,07,10,04,31,13.70
2007,07,10,04,32,13.70
2007,07,10,04,33,13.70
2007,07,10,04,34,13.70
2007,07,10,04,35,13.70
2007,07,10,04,36,13.70
2007,07,10,04,37,13.70
2007,07,10,04,38,13.60
2007,07,10,04,39,13.60
2007,07,10,04,40,13.60
2007,07,10,04,41,13.60
2007,07,10,04,42,13.60
2007,07,10,04,43,13.60
2007,07,10,04,44,13.50
2007,07,10,04,45,13.50
2007,07,10,04,46,13.50
2007,07,10,04,47,13.50
2007,07,10,04,48,13.50
2007,07,10,04,49,13.40
2007,07,10,04,50,13.50
2007,07,10,04,51,13.50
2007,07,10,04,52,13.50
2007,07,10,04,53,13.50
2007,07,10,04,54,13.50
2007,07,10,04,55,13.50
2007,07,10,04,56,13.50
2007,07,10,04,57,13.50
2007,07,10,04,58,13.50
2007,07,10,04,59,13.50
2007,07,10,05,00,13.50
2007,07,10,05,01,13.50
2007,07,10,05,02,13.50
2007,07,10,05,03,13.50
2007,07,10,05,04,13.40
2007,07,10,05,05,13.40
2007,07,10,05,06,13.40
2007,07,10,05,07,13.40
2007,07,10,05,08,13.40
2007,07,10,05,09,13.40
2007,07,10,05,10,13.40
2007,07,10,05,11,13.40
2007,07,10,05,12,13.40
2007,07,10,05,13,13.40
2007,07,10,05,14,13.40
2007,07,10,05,15,13.40
2007,07,10,05,16,13.40
2007,07,10,05,17,13.40
2007,07,10,05,18,13.40
2007,07,10,05,19,13.40
2007,07,10,05,20,13.40
2007,07,10,05,21,13.40
2007,07,10,05,22,13.30
2007,07,10,05,23,13.30
2007,07,10,05,24,13.30
2007,07,10,05,25,13.30
2007,07,10,05,26,13.30
2007,07,10,05,27,13.30
2007,07,10,05,28,13.30
2007,07,10,05,29,13.30
2007,07,10,05,30,13.30
2007,07,10,05,31,13.30
2007,07,10,05,32,13.30
2007,07,10,05,33,13.30
2007,07,10,05,34,13.30
2007,07,10,05,35,13.30
2007,07,10,05,36,13.30
2007,07,10,05,37,13.30
2007,07,10,05,38,13.20
2007,07,10,05,39,13.20
2007,07,10,05,40,13.20
2007,07,10,05,41,13.20
2007,07,10,05,42,13.20
2007,07,10,05,43,13.20
2007,07,10,05,44,13.20
2007,07,10,05,45,13.10
2007,07,10,05,46,13.10
2007,07,10,05,47,13.10
2007,07,10,05,48,13.10
2007,07,10,05,49,13.10
2007,07,10,05,50,13.10
2007,07,10,05,51,13.00
2007,07,10,05,52,13.00
2007,07,10,05,53,13.00
2007,07,10,05,54,13.00
2007,07,10,05,55,13.00
2007,07,10,05,56,13.00
2007,07,10,05,57,13.00
2007,07,10,05,58,13.00
2007,07,10,05,59,13.00
2007,07,10,06,00,13.00
2007,07,10,06,01,13.10
2007,07,10,06,02,13.10
2007,07,10,06,03,13.10
2007,07,10,06,04,13.10
2007,07,10,06,05,13.10
2007,07,10,06,06,13.10
2007,07,10,06,07,13.10
2007,07,10,06,08,13.10
2007,07,10,06,09,13.10
2007,07,10,06,10,13.10
2007,07,10,06,11,13.20
2007,07,10,06,12,13.20
2007,07,10,06,13,13.20
2007,07,10,06,14,13.20
2007,07,10,06,15,13.30
2007,07,10,06,16,13.30
2007,07,10,06,17,13.30
2007,07,10,06,18,13.30
2007,07,10,06,19,13.30
2007,07,10,06,20,13.30
2007,07,10,06,21,13.30
2007,07,10,06,22,13.30
2007,07,10,06,23,13.30
2007,07,10,06,24,13.30
2007,07,10,06,25,13.40
2007,07,10,06,26,13.40
2007,07,10,06,27,13.50
2007,07,10,06,28,13.60
2007,07,10,06,29,13.60
2007,07,10,06,30,13.70
2007,07,10,06,31,13.70
2007,07,10,06,32,13.70
2007,07,10,06,33,13.80
2007,07,10,06,34,13.90
2007,07,10,06,35,13.90
2007,07,10,06,36,14.00
2007,07,10,06,37,14.00
2007,07,10,06,38,14.10
2007,07,10,06,39,14.20
2007,07,10,06,40,14.20
2007,07,10,06,41,14.20
2007,07,10,06,42,14.30
2007,07,10,06,43,14.30
2007,07,10,06,44,14.40
2007,07,10,06,45,14.40
2007,07,10,06,46,14.50
2007,07,10,06,47,14.50
2007,07,10,06,48,14.60
2007,07,10,06,49,14.70
2007,07,10,06,50,14.80
2007,07,10,06,51,14.80
2007,07,10,06,52,14.90
2007,07,10,06,53,15.00
2007,07,10,06,54,15.10
2007,07,10,06,55,15.10
2007,07,10,06,56,15.20
2007,07,10,06,57,15.30
2007,07,10,06,58,15.30
2007,07,10,06,59,15.40
2007,07,10,07,00,15.50
2007,07,10,07,01,15.50
2007,07,10,07,02,15.60
2007,07,10,07,03,15.60
2007,07,10,07,04,15.70
2007,07,10,07,05,15.80
2007,07,10,07,06,15.80
2007,07,10,07,07,15.80
2007,07,10,07,08,15.90
2007,07,10,07,09,15.90
2007,07,10,07,10,16.00
2007,07,10,07,11,16.10
2007,07,10,07,12,16.20
2007,07,10,07,13,16.20
2007,07,10,07,14,16.30
2007,07,10,07,15,16.40
2007,07,10,07,16,16.40
2007,07,10,07,17,16.40
2007,07,10,07,18,16.40
2007,07,10,07,19,16.50
2007,07,10,07,20,16.60
2007,07,10,07,21,16.70
2007,07,10,07,22,16.70
2007,07,10,07,23,16.70
2007,07,10,07,24,16.70
2007,07,10,07,25,16.80
2007,07,10,07,26,16.90
2007,07,10,07,27,17.00
2007,07,10,07,28,17.00
2007,07,10,07,29,17.10
2007,07,10,07,30,17.20
2007,07,10,07,31,17.30
2007,07,10,07,32,17.50
2007,07,10,07,33,17.60
2007,07,10,07,34,17.70
2007,07,10,07,35,17.70
2007,07,10,07,36,17.80
2007,07,10,07,37,17.90
2007,07,10,07,38,17.90
2007,07,10,07,39,17.90
2007,07,10,07,40,17.90
2007,07,10,07,41,17.90
2007,07,10,07,42,17.90
2007,07,10,07,43,18.00
2007,07,10,07,44,18.10
2007,07,10,07,45,18.20
2007,07,10,07,46,18.20
2007,07,10,07,47,18.30
2007,07,10,07,48,18.40
2007,07,10,07,49,18.40
2007,07,10,07,50,18.50
2007,07,10,07,51,18.50
2007,07,10,07,52,18.50
2007,07,10,07,53,18.50
2007,07,10,07,54,18.50
2007,07,10,07,55,18.50
2007,07,10,07,56,18.50
2007,07,10,07,57,18.60
2007,07,10,07,58,18.70
2007,07,10,07,59,18.80
2007,07,10,08,00,18.90
2007,07,10,08,01,19.10
2007,07,10,08,02,19.30
2007,07,10,08,03,19.40
2007,07,10,08,04,19.40
2007,07,10,08,05,19.50
2007,07,10,08,06,19.60
2007,07,10,08,07,19.70
2007,07,10,08,08,19.80
2007,07,10,08,09,20.00
2007,07,10,08,10,20.10
2007,07,10,08,11,20.10
2007,07,10,08,12,20.20
2007,07,10,08,13,20.30
2007,07,10,08,14,20.40
2007,07,10,08,15,20.50
2007,07,10,08,16,20.60
2007,07,10,08,17,20.70
2007,07,10,08,18,20.80
2007,07,10,08,19,20.90
2007,07,10,08,20,21.00
2007,07,10,08,21,21.10
2007,07,10,08,22,21.20
2007,07,10,08,23,21.20
2007,07,10,08,24,21.30
2007,07,10,08,25,21.30
2007,07,10,08,26,21.30
2007,07,10,08,27,21.40
2007,07,10,08,28,21.50
2007,07,10,08,29,21.60
2007,07,10,08,30,21.60
2007,07,10,08,31,21.70
2007,07,10,08,32,21.80
2007,07,10,08,33,21.90
2007,07,10,08,34,22.00
2007,07,10,08,35,22.10
2007,07,10,08,36,22.20
2007,07,10,08,37,22.30
2007,07,10,08,38,22.40
2007,07,10,08,39,22.60
2007,07,10,08,40,22.70
2007,07,10,08,41,22.80
2007,07,10,08,42,22.90
2007,07,10,08,43,22.90
2007,07,10,08,44,22.90
2007,07,10,08,45,22.90
2007,07,10,08,46,22.90
2007,07,10,08,47,22.90
2007,07,10,08,48,23.10
2007,07,10,08,49,23.20
2007,07,10,08,50,23.30
2007,07,10,08,51,23.50
2007,07,10,08,52,23.70
2007,07,10,08,53,23.70
2007,07,10,08,54,23.70
2007,07,10,08,55,23.50
2007,07,10,08,56,23.30
2007,07,10,08,57,23.20
2007,07,10,08,58,23.10
2007,07,10,08,59,23.10
2007,07,10,09,00,23.10
2007,07,10,09,01,23.00
2007,07,10,09,02,22.90
2007,07,10,09,03,22.90
2007,07,10,09,04,22.90
2007,07,10,09,05,22.90
2007,07,10,09,06,22.90
2007,07,10,09,07,22.90
2007,07,10,09,08,22.90
2007,07,10,09,09,22.90
2007,07,10,09,10,22.90
2007,07,10,09,11,22.90
2007,07,10,09,12,22.80
2007,07,10,09,13,22.80
2007,07,10,09,14,22.80
2007,07,10,09,15,22.90
2007,07,10,09,16,22.80
2007,07,10,09,17,22.80
2007,07,10,09,18,22.80
2007,07,10,09,19,22.70
2007,07,10,09,20,22.70
2007,07,10,09,21,22.70
2007,07,10,09,22,22.80
2007,07,10,09,23,22.90
2007,07,10,09,24,22.90
2007,07,10,09,25,22.90
2007,07,10,09,26,22.90
2007,07,10,09,27,22.90
2007,07,10,09,28,22.80
2007,07,10,09,29,22.70
2007,07,10,09,30,22.50
2007,07,10,09,31,22.50
2007,07,10,09,32,22.60
2007,07,10,09,33,22.70
2007,07,10,09,34,22.80
2007,07,10,09,35,22.90
2007,07,10,09,36,23.00
2007,07,10,09,37,23.10
2007,07,10,09,38,23.10
2007,07,10,09,39,23.20
2007,07,10,09,40,23.30
2007,07,10,09,41,23.30
2007,07,10,09,42,23.40
2007,07,10,09,43,23.40
2007,07,10,09,44,23.30
2007,07,10,09,45,23.40
2007,07,10,09,46,23.50
2007,07,10,09,47,23.60
2007,07,10,09,48,23.60
2007,07,10,09,49,23.60
2007,07,10,09,50,23.60
2007,07,10,09,51,23.70
2007,07,10,09,52,23.70
2007,07,10,09,53,23.80
2007,07,10,09,54,23.80
2007,07,10,09,55,23.80
2007,07,10,09,56,23.70
2007,07,10,09,57,23.60
2007,07,10,09,58,23.60
2007,07,10,09,59,23.70
2007,07,10,10,00,23.80
2007,07,10,10,01,23.90
2007,07,10,10,02,24.00
2007,07,10,10,03,23.90
2007,07,10,10,04,23.90
2007,07,10,10,05,23.90
2007,07,10,10,06,23.90
2007,07,10,10,07,23.90
2007,07,10,10,08,23.90
2007,07,10,10,09,23.90
2007,07,10,10,10,23.90
2007,07,10,10,11,23.90
2007,07,10,10,12,23.80
2007,07,10,10,13,23.80
2007,07,10,10,14,24.00
2007,07,10,10,15,24.10
2007,07,10,10,16,24.10
2007,07,10,10,17,24.10
2007,07,10,10,18,24.10
2007,07,10,10,19,24.00
2007,07,10,10,20,23.80
2007,07,10,10,21,23.70
2007,07,10,10,22,23.70
2007,07,10,10,23,23.70
2007,07,10,10,24,23.70
2007,07,10,10,25,23.50
2007,07,10,10,26,23.30
2007,07,10,10,27,23.30
2007,07,10,10,28,23.30
2007,07,10,10,29,23.40
2007,07,10,10,30,23.40
2007,07,10,10,31,23.60
2007,07,10,10,32,23.60
2007,07,10,10,33,23.70
2007,07,10,10,34,23.70
2007,07,10,10,35,23.80
2007,07,10,10,36,23.90
2007,07,10,10,37,23.90
2007,07,10,10,38,23.90
2007,07,10,10,39,23.90
2007,07,10,10,40,24.00
2007,07,10,10,41,24.00
2007,07,10,10,42,23.90
2007,07,10,10,43,24.00
2007,07,10,10,44,24.10
2007,07,10,10,45,24.10
2007,07,10,10,46,24.10
2007,07,10,10,47,24.10
2007,07,10,10,48,24.20
2007,07,10,10,49,24.30
2007,07,10,10,50,24.40
2007,07,10,10,51,24.50
2007,07,10,10,52,24.50
2007,07,10,10,53,24.40
2007,07,10,10,54,24.50
2007,07,10,10,55,24.70
2007,07,10,10,56,24.70
2007,07,10,10,57,24.70
2007,07,10,10,58,24.80
2007,07,10,10,59,24.90
2007,07,10,11,00,24.90
2007,07,10,11,01,24.90
2007,07,10,11,02,24.80
2007,07,10,11,03,24.70
2007,07,10,11,04,24.60
2007,07,10,11,05,24.50
2007,07,10,11,06,24.40
2007,07,10,11,07,24.30
2007,07,10,11,08,24.20
2007,07,10,11,09,24.30
2007,07,10,11,10,24.40
2007,07,10,11,11,24.40
2007,07,10,11,12,24.30
2007,07,10,11,13,24.40
2007,07,10,11,14,24.40
2007,07,10,11,15,24.40
2007,07,10,11,16,24.40
2007,07,10,11,17,24.40
2007,07,10,11,18,24.50
2007,07,10,11,19,24.60
2007,07,10,11,20,24.70
2007,07,10,11,21,24.70
2007,07,10,11,22,24.80
2007,07,10,11,23,24.90
2007,07,10,11,24,24.90
2007,07,10,11,25,25.00
2007,07,10,11,26,25.20
2007,07,10,11,27,25.40
2007,07,10,11,28,25.40
2007,07,10,11,29,25.40
2007,07,10,11,30,25.40
2007,07,10,11,31,25.60
2007,07,10,11,32,25.60
2007,07,10,11,33,25.80
2007,07,10,11,34,25.90
2007,07,10,11,35,25.90
2007,07,10,11,36,26.00
2007,07,10,11,37,26.20
2007,07,10,11,38,26.40
2007,07,10,11,39,26.50
2007,07,10,11,40,26.60
2007,07,10,11,41,26.60
2007,07,10,11,42,26.60
2007,07,10,11,43,26.60
2007,07,10,11,44,26.60
2007,07,10,11,45,26.60
2007,07,10,11,46,26.60
2007,07,10,11,47,26.80
2007,07,10,11,48,27.00
2007,07,10,11,49,27.20
2007,07,10,11,50,27.40
2007,07,10,11,51,27.40
2007,07,10,11,52,27.30
2007,07,10,11,53,27.20
2007,07,10,11,54,27.00
2007,07,10,11,55,26.90
2007,07,10,11,56,26.80
2007,07,10,11,57,26.90
2007,07,10,11,58,27.00
2007,07,10,11,59,27.10
2007,07,10,12,00,27.20
2007,07,10,12,01,27.30
2007,07,10,12,02,27.40
2007,07,10,12,03,27.50
2007,07,10,12,04,27.60
2007,07,10,12,05,27.70
2007,07,10,12,06,27.80
2007,07,10,12,07,27.80
2007,07,10,12,08,27.70
2007,07,10,12,09,27.70
2007,07,10,12,10,27.70
2007,07,10,12,11,27.70
2007,07,10,12,12,27.70
2007,07,10,12,13,27.60
2007,07,10,12,14,27.50
2007,07,10,12,15,27.50
2007,07,10,12,16,27.60
2007,07,10,12,17,27.40
2007,07,10,12,18,27.30
2007,07,10,12,19,27.20
2007,07,10,12,20,27.00
2007,07,10,12,21,26.90
2007,07,10,12,22,27.00
2007,07,10,12,23,27.10
2007,07,10,12,24,27.20
2007,07,10,12,25,27.30
2007,07,10,12,26,27.30
2007,07,10,12,27,27.30
2007,07,10,12,28,27.30
2007,07,10,12,29,27.30
2007,07,10,12,30,27.50
2007,07,10,12,31,27.60
2007,07,10,12,32,27.90
2007,07,10,12,33,27.90
2007,07,10,12,34,27.80
2007,07,10,12,35,27.70
2007,07,10,12,36,27.60
2007,07,10,12,37,27.60
2007,07,10,12,38,27.60
2007,07,10,12,39,27.70
2007,07,10,12,40,27.80
2007,07,10,12,41,27.80
2007,07,10,12,42,27.90
2007,07,10,12,43,27.90
2007,07,10,12,44,28.00
2007,07,10,12,45,28.00
2007,07,10,12,46,28.00
2007,07,10,12,47,28.00
2007,07,10,12,48,28.00
2007,07,10,12,49,28.00
2007,07,10,12,50,28.00
2007,07,10,12,51,28.00
2007,07,10,12,52,27.90
2007,07,10,12,53,27.50
2007,07,10,12,54,27.30
2007,07,10,12,55,27.20
2007,07,10,12,56,27.20
2007,07,10,12,57,27.30
2007,07,10,12,58,27.30
2007,07,10,12,59,27.30
2007,07,10,13,00,27.40
2007,07,10,13,01,27.50
2007,07,10,13,02,27.70
2007,07,10,13,03,27.70
2007,07,10,13,04,27.70
2007,07,10,13,05,27.70
2007,07,10,13,06,27.80
2007,07,10,13,07,28.10
2007,07,10,13,08,28.20
2007,07,10,13,09,28.00
2007,07,10,13,10,27.90
2007,07,10,13,11,27.80
2007,07,10,13,12,27.70
2007,07,10,13,13,27.60
2007,07,10,13,14,27.70
2007,07,10,13,15,27.80
2007,07,10,13,16,27.90
2007,07,10,13,17,28.00
2007,07,10,13,18,28.10
2007,07,10,13,19,28.20
2007,07,10,13,20,28.20
2007,07,10,13,21,28.10
2007,07,10,13,22,28.20
2007,07,10,13,23,28.20
2007,07,10,13,24,28.10
2007,07,10,13,25,28.10
2007,07,10,13,26,28.10
2007,07,10,13,27,28.00
2007,07,10,13,28,27.90
2007,07,10,13,29,27.90
2007,07,10,13,30,27.90
2007,07,10,13,31,27.80
2007,07,10,13,32,27.70
2007,07,10,13,33,27.70
2007,07,10,13,34,27.70
2007,07,10,13,35,27.70
2007,07,10,13,36,27.90
2007,07,10,13,37,28.00
2007,07,10,13,38,28.20
2007,07,10,13,39,28.40
2007,07,10,13,40,28.60
2007,07,10,13,41,28.60
2007,07,10,13,42,28.50
2007,07,10,13,43,28.20
2007,07,10,13,44,28.10
2007,07,10,13,45,28.10
2007,07,10,13,46,28.10
2007,07,10,13,47,28.10
2007,07,10,13,48,28.10
2007,07,10,13,49,27.90
2007,07,10,13,50,27.60
2007,07,10,13,51,27.50
2007,07,10,13,52,27.60
2007,07,10,13,53,27.60
2007,07,10,13,54,27.70
2007,07,10,13,55,27.90
2007,07,10,13,56,27.80
2007,07,10,13,57,27.70
2007,07,10,13,58,27.60
2007,07,10,13,59,27.70
2007,07,10,14,00,27.60
2007,07,10,14,01,27.60
2007,07,10,14,02,27.60
2007,07,10,14,03,27.70
2007,07,10,14,04,27.80
2007,07,10,14,05,27.80
2007,07,10,14,06,27.80
2007,07,10,14,07,27.90
2007,07,10,14,08,27.90
2007,07,10,14,09,27.80
2007,07,10,14,10,27.80
2007,07,10,14,11,27.80
2007,07,10,14,12,27.70
2007,07,10,14,13,27.60
2007,07,10,14,14,27.50
2007,07,10,14,15,27.40
2007,07,10,14,16,27.30
2007,07,10,14,17,27.30
2007,07,10,14,18,27.20
2007,07,10,14,19,27.20
2007,07,10,14,20,27.10
2007,07,10,14,21,27.20
2007,07,10,14,22,27.20
2007,07,10,14,23,27.20
2007,07,10,14,24,27.30
2007,07,10,14,25,27.40
2007,07,10,14,26,27.40
2007,07,10,14,27,27.50
2007,07,10,14,28,27.60
2007,07,10,14,29,27.50
2007,07,10,14,30,27.60
2007,07,10,14,31,27.60
2007,07,10,14,32,27.60
2007,07,10,14,33,27.70
2007,07,10,14,34,27.70
2007,07,10,14,35,27.80
2007,07,10,14,36,27.90
2007,07,10,14,37,28.00
2007,07,10,14,38,28.10
2007,07,10,14,39,28.20
2007,07,10,14,40,28.10
2007,07,10,14,41,28.00
2007,07,10,14,42,28.00
2007,07,10,14,43,27.90
2007,07,10,14,44,27.90
2007,07,10,14,45,27.80
2007,07,10,14,46,27.80
2007,07,10,14,47,27.90
2007,07,10,14,48,28.00
2007,07,10,14,49,28.10
2007,07,10,14,50,28.10
2007,07,10,14,51,28.00
2007,07,10,14,52,28.00
2007,07,10,14,53,28.00
2007,07,10,14,54,28.10
2007,07,10,14,55,28.00
2007,07,10,14,56,27.90
2007,07,10,14,57,27.90
2007,07,10,14,58,28.00
2007,07,10,14,59,28.20
2007,07,10,15,00,28.20
2007,07,10,15,01,28.20
2007,07,10,15,02,28.20
2007,07,10,15,03,28.20
2007,07,10,15,04,28.20
2007,07,10,15,05,28.30
2007,07,10,15,06,28.20
2007,07,10,15,07,28.10
2007,07,10,15,08,28.00
2007,07,10,15,09,28.00
2007,07,10,15,10,28.00
2007,07,10,15,11,27.90
2007,07,10,15,12,27.90
2007,07,10,15,13,27.80
2007,07,10,15,14,27.70
2007,07,10,15,15,27.80
2007,07,10,15,16,27.90
2007,07,10,15,17,27.80
2007,07,10,15,18,27.70
2007,07,10,15,19,27.60
2007,07,10,15,20,27.70
2007,07,10,15,21,27.70
2007,07,10,15,22,27.90
2007,07,10,15,23,28.10
2007,07,10,15,24,28.30
2007,07,10,15,25,28.30
2007,07,10,15,26,28.20
2007,07,10,15,27,28.30
2007,07,10,15,28,28.30
2007,07,10,15,29,28.40
2007,07,10,15,30,28.60
2007,07,10,15,31,28.70
2007,07,10,15,32,28.70
2007,07,10,15,33,28.80
2007,07,10,15,34,28.80
2007,07,10,15,35,28.90
2007,07,10,15,36,28.90
2007,07,10,15,37,28.90
2007,07,10,15,38,28.80
2007,07,10,15,39,28.80
2007,07,10,15,40,28.80
2007,07,10,15,41,28.70
2007,07,10,15,42,28.60
2007,07,10,15,43,28.70
2007,07,10,15,44,28.70
2007,07,10,15,45,28.70
2007,07,10,15,46,28.50
2007,07,10,15,47,28.40
2007,07,10,15,48,28.30
2007,07,10,15,49,28.20
2007,07,10,15,50,28.20
2007,07,10,15,51,28.20
2007,07,10,15,52,28.20
2007,07,10,15,53,28.20
2007,07,10,15,54,28.20
2007,07,10,15,55,28.30
2007,07,10,15,56,28.40
2007,07,10,15,57,28.60
2007,07,10,15,58,28.60
2007,07,10,15,59,28.60
2007,07,10,16,00,28.70
2007,07,10,16,01,28.80
2007,07,10,16,02,28.90
2007,07,10,16,03,29.00
2007,07,10,16,04,29.10
2007,07,10,16,05,29.20
2007,07,10,16,06,29.30
2007,07,10,16,07,29.30
2007,07,10,16,08,29.30
2007,07,10,16,09,29.30
2007,07,10,16,10,29.30
2007,07,10,16,11,29.40
2007,07,10,16,12,29.50
2007,07,10,16,13,29.50
2007,07,10,16,14,29.60
2007,07,10,16,15,29.60
2007,07,10,16,16,29.60
2007,07,10,16,17,29.50
2007,07,10,16,18,29.30
2007,07,10,16,19,29.20
2007,07,10,16,20,29.20
2007,07,10,16,21,29.30
2007,07,10,16,22,29.30
2007,07,10,16,23,29.20
2007,07,10,16,24,29.10
2007,07,10,16,25,28.90
2007,07,10,16,26,28.90
2007,07,10,16,27,28.90
2007,07,10,16,28,29.00
2007,07,10,16,29,29.10
2007,07,10,16,30,28.90
2007,07,10,16,31,28.90
2007,07,10,16,32,28.90
2007,07,10,16,33,28.80
2007,07,10,16,34,28.80
2007,07,10,16,35,28.70
2007,07,10,16,36,28.70
2007,07,10,16,37,28.70
2007,07,10,16,38,28.80
2007,07,10,16,39,28.80
2007,07,10,16,40,28.80
2007,07,10,16,41,28.80
2007,07,10,16,42,28.80
2007,07,10,16,43,28.80
2007,07,10,16,44,28.80
2007,07,10,16,45,28.90
2007,07,10,16,46,28.90
2007,07,10,16,47,29.10
2007,07,10,16,48,29.20
2007,07,10,16,49,29.30
2007,07,10,16,50,29.40
2007,07,10,16,51,29.40
2007,07,10,16,52,29.30
2007,07,10,16,53,29.30
2007,07,10,16,54,29.40
2007,07,10,16,55,29.50
2007,07,10,16,56,29.60
2007,07,10,16,57,29.70
2007,07,10,16,58,29.70
2007,07,10,16,59,29.80
2007,07,10,17,00,29.80
2007,07,10,17,01,29.80
2007,07,10,17,02,29.70
2007,07,10,17,03,29.70
2007,07,10,17,04,29.80
2007,07,10,17,05,29.80
2007,07,10,17,06,29.80
2007,07,10,17,07,29.80
2007,07,10,17,08,29.70
2007,07,10,17,09,29.70
2007,07,10,17,10,29.70
2007,07,10,17,11,29.80
2007,07,10,17,12,29.90
2007,07,10,17,13,29.90
2007,07,10,17,14,29.90
2007,07,10,17,15,29.80
2007,07,10,17,16,29.90
2007,07,10,17,17,30.00
2007,07,10,17,18,30.10
2007,07,10,17,19,30.20